Change the Weather History Date:

Sunday, October 6, 2013

  Actual Average Record
Temperature  
Mean Temperature 57 °F 56 °F  
Max Temperature 68 °F 67 °F 89 °F (1963)
Min Temperature 45 °F 45 °F 28 °F (1966)
Degree Days  
Heating Degree Days 8 10  
Month to date heating degree days 9 53  
Since 1 July heating degree days 127 169  
Cooling Degree Days 0 1  
Month to date cooling degree days 28 6  
Year to date cooling degree days 855 806  
Growing Degree Days 8 (Base 50)    
Moisture  
Dew Point 57 °F    
Average Humidity 90    
Maximum Humidity 100    
Minimum Humidity 66    
Precipitation  
Precipitation 0.54 in 0.09 in 2.40 in (1955)
Month to date precipitation 1.26 0.58  
Year to date precipitation 35.49 30.22  
Snow  
Snow 0.00 in 0.00 in T in (1991)
Month to date snowfall 0.0 0.0  
Since 1 July snowfall 0.0 0.0  
Since 1 September snowfall 0.0 0.0  
Snow Depth 0.00 in    
Sea Level Pressure  
Sea Level Pressure 29.77 in    
Wind  
Wind Speed 10 mph (WSW)    
Max Wind Speed 18 mph    
Max Gust Speed 26 mph    
Visibility 8 miles    
Events Fog , Rain    
T = Trace of Precipitation, MM = Missing Value Source: NWS Daily Summary

Daily Weather History Graph

Daily Weather History Graph

Search for Another Location

Airport or City:

Trip Planner

Search our weather history database for the weather conditions in past years. The results will help you decide how hot, cold, wet, or windy it might be!

Date:

Astronomy

Oct. 06, 2013 Rise Set
Actual Time 7:42 AM EDT 7:14 PM EDT
Civil Twilight 7:15 AM EDT 7:41 PM EDT
Nautical Twilight 6:43 AM EDT 8:13 PM EDT
Astronomical Twilight 6:11 AM EDT 8:45 PM EDT
Moon 9:27 AM EDT (10/6) 8:11 PM EDT (10/6)
Length of Visible Light 12h 26m
Length of Day
11h 31m
Waxing Crescent, 3% of the Moon is Illuminated
Oct 6
Waxing Crescent
Oct 11
First Quarter
Oct 18
Full
Oct 26
Last Quarter
Nov 3
New

Hourly Weather History & Observations

Time (EDT) Temp. Dew Point Humidity Pressure Visibility Wind Dir Wind Speed Gust Speed Precip Events Conditions
12:10 AM 69.8 °F 66.2 °F 88% 29.89 in 10.0 mi SSW 10.4 mph - N/A   Overcast
12:17 AM 69.8 °F 66.2 °F 88% 29.89 in 10.0 mi SSW 8.1 mph - N/A   Overcast
12:54 AM 68.0 °F 66.0 °F 93% 29.87 in 10.0 mi South 8.1 mph - N/A   Overcast
1:54 AM 66.9 °F 64.9 °F 93% 29.85 in 10.0 mi South 9.2 mph - N/A   Overcast
2:54 AM 66.9 °F 64.0 °F 90% 29.86 in 10.0 mi South 9.2 mph - 0.00 in Rain Light Rain
3:54 AM 66.0 °F 64.0 °F 93% 29.84 in 9.0 mi South 12.7 mph - 0.02 in Rain Light Rain
4:54 AM 66.0 °F 64.0 °F 93% 29.81 in 9.0 mi South 13.8 mph - 0.08 in Rain Rain
5:54 AM 66.0 °F 64.0 °F 93% 29.81 in 9.0 mi South 16.1 mph - 0.06 in Rain Light Rain
6:54 AM 66.0 °F 64.0 °F 93% 29.80 in 10.0 mi South 12.7 mph - 0.03 in Rain Light Rain
7:54 AM 64.9 °F 63.0 °F 93% 29.79 in 10.0 mi South 11.5 mph - 0.01 in Rain Light Rain
8:54 AM 64.9 °F 63.0 °F 93% 29.77 in 10.0 mi South 9.2 mph - 0.02 in Rain Light Rain
9:54 AM 64.9 °F 63.0 °F 93% 29.77 in 10.0 mi South 15.0 mph 20.7 mph 0.00 in Rain Light Rain
10:45 AM 66.2 °F 62.6 °F 88% 29.78 in 10.0 mi SSE 15.0 mph 21.9 mph 0.00 in Rain Light Rain
10:54 AM 66.0 °F 63.0 °F 90% 29.76 in 10.0 mi South 16.1 mph - 0.00 in Rain Light Rain
11:09 AM 66.2 °F 62.6 °F 88% 29.77 in 8.0 mi South 17.3 mph - 0.01 in Rain Light Rain
11:54 AM 66.0 °F 63.0 °F 90% 29.75 in 10.0 mi SSE 13.8 mph 23.0 mph 0.01 in   Overcast
12:39 PM 64.4 °F 62.6 °F 94% 29.75 in 5.0 mi West 16.1 mph 23.0 mph 0.00 in Rain Light Rain
12:54 PM 59.0 °F 57.0 °F 93% 29.75 in 5.0 mi West 13.8 mph - 0.01 in Rain Light Rain
1:05 PM 57.2 °F 55.4 °F 94% 29.77 in 1.5 mi West 13.8 mph 20.7 mph 0.00 in Rain Light Rain
1:23 PM 57.2 °F 55.4 °F 94% 29.76 in 5.0 mi WNW 10.4 mph - 0.01 in   Overcast
1:37 PM 57.2 °F 55.4 °F 94% 29.75 in 6.0 mi NW 4.6 mph - 0.01 in   Overcast
1:44 PM 57.2 °F 55.4 °F 94% 29.75 in 7.0 mi WNW 6.9 mph - 0.01 in   Overcast
1:54 PM 57.9 °F 55.9 °F 93% 29.74 in 7.0 mi WNW 5.8 mph - 0.01 in   Overcast
2:09 PM 57.2 °F 55.4 °F 94% 29.73 in 2.5 mi NW 6.9 mph - 0.00 in Rain Light Rain
2:18 PM 57.2 °F 55.4 °F 94% 29.74 in 1.0 mi West 8.1 mph - 0.02 in Rain Light Rain
2:33 PM 55.4 °F 55.4 °F 100% 29.73 in 1.5 mi WNW 11.5 mph - 0.06 in Rain Light Rain
2:39 PM 55.4 °F 53.6 °F 94% 29.74 in 2.5 mi West 8.1 mph 17.3 mph 0.07 in Rain Rain
2:45 PM 55.4 °F 53.6 °F 94% 29.75 in 0.5 mi West 9.2 mph 17.3 mph 0.15 in Fog , Rain Heavy Rain
2:54 PM 55.9 °F 54.0 °F 93% 29.75 in 0.5 mi West 9.2 mph - 0.21 in Fog , Rain Heavy Rain
3:05 PM 55.4 °F 55.4 °F 100% 29.74 in 2.5 mi West 5.8 mph - 0.05 in Rain Rain
3:09 PM 57.2 °F 55.4 °F 94% 29.74 in 3.0 mi West 6.9 mph - 0.05 in Rain Light Rain
3:42 PM 57.2 °F 55.4 °F 94% 29.73 in 4.0 mi West 4.6 mph - 0.08 in Rain Light Rain
3:54 PM 57.9 °F 55.0 °F 90% 29.73 in 10.0 mi Variable 3.5 mph - 0.08 in Rain Light Rain
4:30 PM 57.2 °F 55.4 °F 94% 29.74 in 10.0 mi West 9.2 mph - N/A   Overcast
4:37 PM 57.2 °F 55.4 °F 94% 29.74 in 10.0 mi West 6.9 mph - N/A   Overcast
4:47 PM 57.2 °F 53.6 °F 88% 29.73 in 10.0 mi West 9.2 mph - 0.00 in Rain Light Rain
4:54 PM 59.0 °F 55.0 °F 87% 29.73 in 10.0 mi West 5.8 mph - 0.00 in Rain Light Rain
5:10 PM 57.2 °F 53.6 °F 88% 29.73 in 10.0 mi WNW 6.9 mph - 0.00 in   Mostly Cloudy
5:29 PM 57.2 °F 53.6 °F 88% 29.74 in 10.0 mi West 4.6 mph - 0.00 in   Mostly Cloudy
5:54 PM 57.9 °F 53.1 °F 84% 29.74 in 10.0 mi WSW 3.5 mph - 0.00 in Rain Light Rain
6:54 PM 57.0 °F 53.1 °F 87% 29.75 in 10.0 mi SW 3.5 mph - 0.00 in   Mostly Cloudy
7:54 PM 55.9 °F 53.1 °F 90% 29.75 in 10.0 mi South 5.8 mph - N/A   Mostly Cloudy
8:54 PM 55.9 °F 54.0 °F 93% 29.76 in 10.0 mi South 9.2 mph - N/A   Mostly Cloudy
9:40 PM 53.6 °F 44.6 °F 72% 29.78 in 10.0 mi West 15.0 mph 21.9 mph 0.00 in   Overcast
9:54 PM 53.1 °F 44.1 °F 71% 29.79 in 10.0 mi West 10.4 mph 19.6 mph 0.00 in   Overcast
10:54 PM 51.1 °F 43.0 °F 74% 29.80 in 10.0 mi West 9.2 mph - N/A   Overcast
11:54 PM 48.0 °F 41.0 °F 77% 29.81 in 10.0 mi West 5.8 mph - N/A   Partly Cloudy